Whidbey Island, WA

9:45 AM PDT on August 23, 2017 (GMT -0700)
Whidbey Island Naval Air Station

Weather History for KNUW - September, 2013

Change the Weather History Date:

Friday, September 6, 2013

  Actual Average Record
Temperature  
Mean Temperature 62 °F -  
Max Temperature 70 °F 63 °F 71 °F (2005)
Min Temperature 55 °F 48 °F 43 °F (2002)
Degree Days  
Heating Degree Days 3    
Growing Degree Days 12 (Base 50)    
Moisture  
Dew Point 59 °F    
Average Humidity 90    
Maximum Humidity 100    
Minimum Humidity 73    
Precipitation  
Precipitation 0.08 in - - ()
Sea Level Pressure  
Sea Level Pressure 30.04 in    
Wind  
Wind Speed 6 mph (ESE)    
Max Wind Speed 13 mph    
Max Gust Speed -    
Visibility 8 miles    
Events Rain , Thunderstorm    
Averages and records for this station are not official NWS values.
T = Trace of Precipitation, MM = Missing Value Source: NWS Daily Summary

Daily Weather History Graph

Daily Weather History Graph

Search for Another Location

Airport or City:

Trip Planner

Search our weather history database for the weather conditions in past years. The results will help you decide how hot, cold, wet, or windy it might be!

Date:

Astronomy

Sep. 06, 2013 Rise Set
Actual Time 6:35 AM PDT 7:41 PM PDT
Civil Twilight 6:03 AM PDT 8:13 PM PDT
Nautical Twilight 5:25 AM PDT 8:51 PM PDT
Astronomical Twilight 4:43 AM PDT 9:32 PM PDT
Moon 8:04 AM PDT (9/6) 7:55 PM PDT (9/6)
Length of Visible Light 14h 09m
Length of Day
13h 05m
New Moon, 2% of the Moon is Illuminated
Sep 6
New Moon
Sep 12
First Quarter
Sep 19
Full
Sep 26
Last Quarter
Oct 4
New

Hourly Weather History & Observations

Time (PDT) Temp. Dew Point Humidity Pressure Visibility Wind Dir Wind Speed Gust Speed Precip Events Conditions
12:56 AM 57.9 °F 55.9 °F 93% 30.00 in 10.0 mi ESE 12.7 mph - 0.00 in Rain , Thunderstorm Light Thunderstorms and Rain
1:56 AM 61.0 °F 59.0 °F 93% 29.99 in 10.0 mi ESE 6.9 mph - 0.00 in Rain Light Rain
2:56 AM 61.0 °F 59.0 °F 93% 29.97 in 10.0 mi ESE 4.6 mph - 0.02 in Rain Light Rain
3:56 AM 60.1 °F 57.9 °F 93% 29.97 in 6.0 mi ESE 5.8 mph - 0.02 in Rain Light Rain
4:56 AM 60.1 °F 59.0 °F 96% 29.97 in 6.0 mi Calm Calm - 0.00 in   Overcast
5:12 AM 60.8 °F 59.0 °F 94% 29.96 in 6.0 mi ESE 3.5 mph - 0.00 in Rain Light Rain
5:56 AM 60.1 °F 59.0 °F 96% 29.99 in 6.0 mi ESE 6.9 mph - 0.00 in Rain Light Rain
6:56 AM 60.1 °F 59.0 °F 96% 29.99 in 6.0 mi ESE 4.6 mph - 0.00 in Rain Light Rain
7:24 AM 60.8 °F 59.0 °F 94% 29.99 in 7.0 mi ESE 3.5 mph - 0.00 in   Overcast
7:41 AM 60.8 °F 59.0 °F 94% 30.00 in 7.0 mi ESE 4.6 mph - 0.00 in Rain Light Rain
7:56 AM 60.1 °F 59.0 °F 96% 30.02 in 6.0 mi East 5.8 mph - 0.00 in Rain Light Rain
8:56 AM 61.0 °F 60.1 °F 97% 30.03 in 5.0 mi ESE 5.8 mph - 0.00 in Rain Light Rain
9:30 AM 60.8 °F 60.8 °F 100% 30.02 in 4.0 mi Calm Calm - 0.02 in Rain Light Rain
9:56 AM 62.1 °F 60.1 °F 93% 30.04 in 5.0 mi East 3.5 mph - 0.04 in Rain Rain
10:28 AM 62.6 °F 60.8 °F 94% 30.03 in 8.0 mi ESE 9.2 mph - 0.00 in   Overcast
10:56 AM 63.0 °F 61.0 °F 93% 30.05 in 8.0 mi Variable 3.5 mph - 0.00 in   Overcast
11:56 AM 64.0 °F 61.0 °F 90% 30.06 in 8.0 mi East 6.9 mph - N/A   Overcast
12:56 PM 66.0 °F 61.0 °F 84% 30.05 in 8.0 mi ESE 5.8 mph - N/A   Overcast
1:11 PM 66.2 °F 60.8 °F 83% 30.04 in 8.0 mi SSW 5.8 mph - N/A   Overcast
1:56 PM 64.0 °F 60.1 °F 87% 30.05 in 8.0 mi SE 5.8 mph - N/A   Mostly Cloudy
2:56 PM 62.1 °F 60.1 °F 93% 30.07 in 10.0 mi NNE 3.5 mph - N/A   Overcast
3:56 PM 68.0 °F 60.1 °F 76% 30.08 in 10.0 mi SE 6.9 mph - N/A   Overcast
4:56 PM 66.9 °F 60.1 °F 79% 30.07 in 10.0 mi SSE 5.8 mph - N/A   Overcast
5:56 PM 68.0 °F 61.0 °F 78% 30.07 in 10.0 mi SE 4.6 mph - N/A   Overcast
6:56 PM 69.1 °F 60.1 °F 73% 30.07 in 10.0 mi SSE 6.9 mph - N/A   Mostly Cloudy
7:56 PM 66.0 °F 60.1 °F 81% 30.09 in 10.0 mi East 4.6 mph - N/A   Mostly Cloudy
8:56 PM 63.0 °F 60.1 °F 90% 30.09 in 10.0 mi ESE 8.1 mph - N/A   Overcast
9:56 PM 64.0 °F 60.1 °F 87% 30.10 in 10.0 mi SE 3.5 mph - N/A   Overcast
10:56 PM 63.0 °F 60.1 °F 90% 30.11 in 10.0 mi SE 9.2 mph - N/A   Overcast
11:28 PM 55.4 °F 55.4 °F 100% 30.10 in 10.0 mi WSW 8.1 mph - N/A   Overcast
11:56 PM 57.9 °F 55.9 °F 93% 30.12 in 10.0 mi Calm Calm - N/A   Overcast